Previsão horária em Abalos

Hoje, 17 Abril, Sábado

Tempo Temperatura Precipitação Vento Pressão Humidade
00:00 +3°C° 0 mm 2 m/s 719 mmHg 74%
01:00 +2°C° 0 mm 2 m/s 719 mmHg 78%
02:00 +3°C° 0 mm 1 m/s 719 mmHg 81%
03:00 +3°C° 0 mm 1 m/s 718 mmHg 85%
04:00 +3°C° 0 mm 1 m/s 718 mmHg 86%
05:00 +2°C° 0 mm 2 m/s 718 mmHg 87%
06:00 +2°C° 0 mm 2 m/s 718 mmHg 88%
07:00 +3°C° 0 mm 2 m/s 719 mmHg 80%
08:00 +3°C° 0 mm 3 m/s 719 mmHg 72%
09:00 +5°C° 0 mm 3 m/s 719 mmHg 63%
10:00 +5°C° 0 mm 3 m/s 718 mmHg 61%
11:00 +6°C° 0 mm 4 m/s 718 mmHg 59%
12:00 +7°C° 0 mm 4 m/s 718 mmHg 58%
13:00 +7°C° 0 mm 4 m/s 718 mmHg 56%
14:00 +8°C° 0 mm 5 m/s 718 mmHg 55%
15:00 +8°C° 0 mm 5 m/s 717 mmHg 54%
16:00 +7°C° 0 mm 5 m/s 717 mmHg 58%
17:00 +7°C° 0 mm 4 m/s 718 mmHg 61%
18:00 +6°C° 0 mm 4 m/s 718 mmHg 65%
19:00 +4°C° 0 mm 3 m/s 718 mmHg 70%
20:00 +4°C° 0 mm 2 m/s 719 mmHg 76%
21:00 +4°C° 0 mm 1 m/s 719 mmHg 81%
22:00 +3°C° 0 mm 2 m/s 719 mmHg 80%
23:00 +4°C° 0 mm 2 m/s 719 mmHg 79%

Amanhã, 18 Abril, Domingo

Tempo Temperatura Precipitação Vento Pressão Humidade
00:00 +4°C° 0 mm 2 m/s 719 mmHg 78%
01:00 +4°C° 0 mm 2 m/s 719 mmHg 79%
02:00 +4°C° 0 mm 2 m/s 719 mmHg 79%
03:00 +5°C° 0 mm 1 m/s 718 mmHg 79%
04:00 +5°C° 0 mm 1 m/s 718 mmHg 80%
05:00 +5°C° 0 mm 1 m/s 718 mmHg 82%
06:00 +4°C° 0 mm 1 m/s 718 mmHg 84%
07:00 +6°C° 0 mm 1 m/s 718 mmHg 76%
08:00 +7°C° 0 mm 2 m/s 719 mmHg 69%
09:00 +8°C° 0 mm 2 m/s 719 mmHg 61%
10:00 +10°C° 0 mm 2 m/s 718 mmHg 57%
11:00 +13°C° 0 mm 2 m/s 718 mmHg 52%
12:00 +14°C° 0 mm 2 m/s 717 mmHg 48%
13:00 +15°C° 0 mm 2 m/s 717 mmHg 46%
14:00 +16°C° 0 mm 2 m/s 717 mmHg 44%
15:00 +16°C° 0 mm 2 m/s 716 mmHg 41%
16:00 +16°C° 0 mm 2 m/s 716 mmHg 47%
17:00 +15°C° 0 mm 1 m/s 716 mmHg 52%
18:00 +14°C° 0 mm 1 m/s 716 mmHg 58%
19:00 +12°C° 0 mm 1 m/s 716 mmHg 61%
20:00 +11°C° 0 mm 1 m/s 716 mmHg 64%
21:00 +9°C° 0 mm 1 m/s 716 mmHg 67%
22:00 +9°C° 0 mm 1 m/s 716 mmHg 68%
23:00 +8°C° 0 mm 1 m/s 716 mmHg 68%

Depois de amanhã, 19 Abril, Segunda-feira

Tempo Temperatura Precipitação Vento Pressão Humidade
00:00 +8°C° 0 mm 1 m/s 716 mmHg 69%
01:00 +8°C° 0 mm 1 m/s 715 mmHg 68%
02:00 +8°C° 0 mm 1 m/s 715 mmHg 67%
03:00 +8°C° 0 mm 1 m/s 715 mmHg 67%
04:00 +8°C° 0 mm 1 m/s 715 mmHg 66%
05:00 +9°C° 0 mm 1 m/s 714 mmHg 66%
06:00 +9°C° 0 mm 1 m/s 714 mmHg 66%
07:00 +11°C° 0 mm 1 m/s 714 mmHg 61%
08:00 +12°C° 0 mm 1 m/s 714 mmHg 56%
09:00 +14°C° 0 mm 1 m/s 714 mmHg 52%
10:00 +15°C° 0 mm 2 m/s 714 mmHg 50%
11:00 +16°C° 0 mm 2 m/s 714 mmHg 49%
12:00 +16°C° 0 mm 3 m/s 714 mmHg 47%
13:00 +14°C° 0.1 mm 3 m/s 713 mmHg 54%
14:00 +13°C° 0.1 mm 3 m/s 713 mmHg 60%
15:00 +12°C° 0.1 mm 3 m/s 713 mmHg 66%
16:00 +13°C° 0.1 mm 2 m/s 713 mmHg 71%
17:00 +12°C° 0.1 mm 2 m/s 713 mmHg 75%
18:00 +12°C° 0.1 mm 1 m/s 713 mmHg 79%
19:00 +11°C° 0.6 mm 1 m/s 713 mmHg 83%
20:00 +10°C° 0.6 mm 1 m/s 713 mmHg 87%
21:00 +9°C° 0.6 mm 0 m/s 713 mmHg 90%
22:00 +9°C° 0.8 mm 0 m/s 713 mmHg 91%
23:00 +9°C° 0.8 mm 0 m/s 713 mmHg 93%

20 Abril, Terça-feira

Tempo Temperatura Precipitação Vento Pressão Humidade
00:00 +8°C° 0.8 mm 0 m/s 712 mmHg 94%
01:00 +8°C° 0 mm 0 m/s 712 mmHg 93%
02:00 +8°C° 0 mm 0 m/s 712 mmHg 93%
03:00 +8°C° 0 mm 0 m/s 712 mmHg 92%
04:00 +8°C° 0 mm 0 m/s 711 mmHg 92%
05:00 +8°C° 0 mm 1 m/s 711 mmHg 92%
06:00 +8°C° 0 mm 1 m/s 711 mmHg 92%
07:00 +9°C° 0.1 mm 1 m/s 712 mmHg 89%
08:00 +10°C° 0.1 mm 1 m/s 712 mmHg 86%
09:00 +10°C° 0.1 mm 2 m/s 712 mmHg 82%
10:00 +12°C° 0.3 mm 2 m/s 712 mmHg 77%
11:00 +12°C° 0.3 mm 3 m/s 711 mmHg 72%
12:00 +13°C° 0.3 mm 3 m/s 711 mmHg 66%
13:00 +13°C° 0.3 mm 3 m/s 711 mmHg 70%
14:00 +12°C° 0.3 mm 3 m/s 711 mmHg 73%
15:00 +12°C° 0.3 mm 4 m/s 711 mmHg 76%
16:00 +11°C° 0.1 mm 3 m/s 712 mmHg 79%
17:00 +10°C° 0.1 mm 3 m/s 712 mmHg 81%
18:00 +10°C° 0.1 mm 2 m/s 713 mmHg 83%
19:00 +9°C° 0 mm 2 m/s 713 mmHg 86%
20:00 +8°C° 0 mm 2 m/s 713 mmHg 88%
21:00 +8°C° 0 mm 1 m/s 714 mmHg 90%
22:00 +8°C° 0 mm 1 m/s 714 mmHg 90%
23:00 +8°C° 0 mm 1 m/s 714 mmHg 89%

21 Abril, Quarta-feira

Tempo Temperatura Precipitação Vento Pressão Humidade
00:00 +7°C° 0 mm 1 m/s 714 mmHg 89%
01:00 +7°C° 0 mm 1 m/s 714 mmHg 90%
02:00 +6°C° 0 mm 1 m/s 714 mmHg 91%
03:00 +6°C° 0 mm 1 m/s 714 mmHg 93%
04:00 +6°C° 0 mm 1 m/s 714 mmHg 93%
05:00 +6°C° 0 mm 1 m/s 714 mmHg 93%
06:00 +5°C° 0 mm 1 m/s 714 mmHg 93%
07:00 +7°C° 0 mm 1 m/s 715 mmHg 84%
08:00 +9°C° 0 mm 1 m/s 715 mmHg 76%
09:00 +10°C° 0 mm 2 m/s 715 mmHg 67%
10:00 +12°C° 0 mm 2 m/s 715 mmHg 62%
11:00 +12°C° 0 mm 3 m/s 715 mmHg 57%
12:00 +13°C° 0 mm 3 m/s 714 mmHg 52%
13:00 +13°C° 0 mm 3 m/s 714 mmHg 53%
14:00 +13°C° 0 mm 3 m/s 714 mmHg 55%
15:00 +13°C° 0 mm 4 m/s 714 mmHg 56%
16:00 +12°C° 0 mm 4 m/s 714 mmHg 60%
17:00 +12°C° 0 mm 4 m/s 715 mmHg 63%
18:00 +11°C° 0 mm 3 m/s 715 mmHg 67%
19:00 +10°C° 0 mm 3 m/s 715 mmHg 74%
20:00 +8°C° 0 mm 2 m/s 716 mmHg 80%
21:00 +8°C° 0 mm 1 m/s 717 mmHg 87%
22:00 +7°C° 0 mm 1 m/s 717 mmHg 88%
23:00 +7°C° 0 mm 1 m/s 717 mmHg 88%

22 Abril, Quinta-feira

Tempo Temperatura Precipitação Vento Pressão Humidade
00:00 +7°C° 0 mm 1 m/s 717 mmHg 89%
01:00 +7°C° 0 mm 1 m/s 716 mmHg 89%
02:00 +6°C° 0 mm 1 m/s 716 mmHg 89%
03:00 +6°C° 0 mm 1 m/s 716 mmHg 90%
04:00 +6°C° 0 mm 1 m/s 716 mmHg 89%
05:00 +6°C° 0 mm 1 m/s 717 mmHg 89%
06:00 +6°C° 0 mm 1 m/s 717 mmHg 89%
07:00 +8°C° 0 mm 1 m/s 717 mmHg 81%
08:00 +11°C° 0 mm 1 m/s 717 mmHg 74%
09:00 +13°C° 0 mm 1 m/s 717 mmHg 66%
10:00 +15°C° 0 mm 1 m/s 717 mmHg 60%
11:00 +16°C° 0 mm 2 m/s 717 mmHg 54%
12:00 +18°C° 0 mm 2 m/s 717 mmHg 48%
13:00 +18°C° 0 mm 2 m/s 716 mmHg 46%
14:00 +19°C° 0 mm 3 m/s 716 mmHg 44%
15:00 +19°C° 0 mm 3 m/s 716 mmHg 42%
16:00 +18°C° 0 mm 3 m/s 716 mmHg 49%
17:00 +17°C° 0 mm 2 m/s 716 mmHg 55%
18:00 +16°C° 0 mm 2 m/s 716 mmHg 62%
19:00 +14°C° 0 mm 2 m/s 716 mmHg 69%
20:00 +12°C° 0 mm 1 m/s 716 mmHg 76%
21:00 +10°C° 0 mm 1 m/s 717 mmHg 83%
22:00 +10°C° 0 mm 1 m/s 717 mmHg 84%
23:00 +9°C° 0 mm 1 m/s 717 mmHg 84%
Mostrar mais

Necessitamos do seu Consentimento

A Meteoprog e os seus Fornecedores de Serviços podem armazenar e aceder a dados pessoais como cookies, identificadores do dispositivo ou outras tecnologias semelhantes existentes no seu dispositivo e processar estes dados para personalizar conteúdos e anúncios, assim como funcionalidades nas redes sociais e análise de tráfego.

  • Armazenar e/ou aceder a informações no seu dispositivo

    Os cookies, identificadores do dispositivo ou outras informações podem ser armazenados ou acedidos no seu dispositivo, para os fins acima indicados.

  • Anúncios e conteúdos personalizados, medição de anúncios e conteúdos, dados sobre o público-alvo e desenvolvimento de produtos

    Os anúncios e os conteúdos podem ser personalizados com base num perfil. Podem ser adicionados dados adicionais para uma maior personalização dos anúncios e dos conteúdos. A eficácia dos anúncios e dos conteúdos pode ser medida. Podem ser obtidas informações sobre o público que visualizou os anúncios e os conteúdos. Estes dados podem ser usados para desenvolver ou melhorar sistemas, softwares ou a experiência do utilizador.

Ao clicar em "Eu concordo”, permitirá o uso de cookies, identificadores do dispositivo e web beacons mencionados ou outras tecnologias semelhantes. As configurações do navegador do seu dispositivo podem ser alteradas.

Para certos fins, podem ser invocados interesses legítimos ao invés de consentimento. Pode ler mais informação sobre este assunto na nossa Política de Privacidade e Cookies.